23/03/2024 21:15:00,0.599
23/03/2024 21:30:00,0.595
23/03/2024 21:45:00,0.595
23/03/2024 22:00:00,0.595
23/03/2024 22:15:00,0.592
23/03/2024 22:30:00,0.589
23/03/2024 22:45:00,0.588
23/03/2024 23:00:00,0.586
23/03/2024 23:15:00,0.583
23/03/2024 23:30:00,0.582
23/03/2024 23:45:00,0.581
24/03/2024 00:00:00,0.579
24/03/2024 00:15:00,0.577
24/03/2024 00:30:00,0.575
24/03/2024 00:45:00,0.571
24/03/2024 01:00:00,0.569
24/03/2024 01:15:00,0.567
24/03/2024 01:30:00,0.566
24/03/2024 01:45:00,0.565
24/03/2024 02:00:00,0.562
24/03/2024 02:15:00,0.561
24/03/2024 02:30:00,0.558
24/03/2024 02:45:00,0.558
24/03/2024 03:00:00,0.558
24/03/2024 03:15:00,0.557
24/03/2024 03:30:00,0.554
24/03/2024 03:45:00,0.554
24/03/2024 04:00:00,0.552
24/03/2024 04:15:00,0.549
24/03/2024 04:30:00,0.549
24/03/2024 04:45:00,0.548
24/03/2024 05:00:00,0.549
24/03/2024 05:15:00,0.547
24/03/2024 05:30:00,0.545
24/03/2024 05:45:00,0.543
24/03/2024 06:00:00,0.541
24/03/2024 06:15:00,0.541
24/03/2024 06:30:00,0.538
24/03/2024 06:45:00,0.538
24/03/2024 07:00:00,0.535
24/03/2024 07:15:00,0.534
24/03/2024 07:30:00,0.532
24/03/2024 07:45:00,0.531
24/03/2024 08:00:00,0.53
24/03/2024 08:15:00,0.531
24/03/2024 08:30:00,0.528
24/03/2024 08:45:00,0.526
24/03/2024 09:00:00,0.525
24/03/2024 09:15:00,0.524
24/03/2024 09:30:00,0.522
24/03/2024 09:45:00,0.521
24/03/2024 10:00:00,0.521
24/03/2024 10:15:00,0.518
24/03/2024 10:30:00,0.518
24/03/2024 10:45:00,0.517
24/03/2024 11:00:00,0.517
24/03/2024 11:15:00,0.515
24/03/2024 11:30:00,0.513
24/03/2024 11:45:00,0.513
24/03/2024 12:00:00,0.513
24/03/2024 12:15:00,0.51
24/03/2024 12:30:00,0.509
24/03/2024 12:45:00,0.508
24/03/2024 13:00:00,0.506
24/03/2024 13:15:00,0.506
24/03/2024 13:30:00,0.505
24/03/2024 13:45:00,0.504
24/03/2024 14:00:00,0.502
24/03/2024 14:15:00,0.501
24/03/2024 14:30:00,0.502
24/03/2024 14:45:00,0.5
24/03/2024 15:00:00,0.5
24/03/2024 15:15:00,0.499
24/03/2024 15:30:00,0.498
24/03/2024 15:45:00,0.497
24/03/2024 16:00:00,0.498
24/03/2024 16:15:00,0.497
24/03/2024 16:30:00,0.496
24/03/2024 16:45:00,0.497
24/03/2024 17:00:00,0.495
24/03/2024 17:15:00,0.495
24/03/2024 17:30:00,0.495
24/03/2024 17:45:00,0.495
24/03/2024 18:00:00,0.494
24/03/2024 18:15:00,0.493
24/03/2024 18:30:00,0.494
24/03/2024 18:45:00,0.493
24/03/2024 19:00:00,0.493
24/03/2024 19:15:00,0.493
24/03/2024 19:30:00,0.492
24/03/2024 19:45:00,0.493
24/03/2024 20:00:00,0.492
24/03/2024 20:15:00,0.491
24/03/2024 20:30:00,0.492
24/03/2024 20:45:00,0.491
24/03/2024 21:00:00,0.488
24/03/2024 21:15:00,0.49
24/03/2024 21:30:00,0.491
24/03/2024 21:45:00,0.488
24/03/2024 22:00:00,0.487
24/03/2024 22:15:00,0.487
24/03/2024 22:30:00,0.485
24/03/2024 22:45:00,0.485
24/03/2024 23:00:00,0.485
24/03/2024 23:15:00,0.485
24/03/2024 23:30:00,0.484
24/03/2024 23:45:00,0.482
25/03/2024 00:00:00,0.483
25/03/2024 00:15:00,0.482
25/03/2024 00:30:00,0.48
25/03/2024 00:45:00,0.48
25/03/2024 01:00:00,0.479
25/03/2024 01:15:00,0.479
25/03/2024 01:30:00,0.477
25/03/2024 01:45:00,0.477
25/03/2024 02:00:00,0.475
25/03/2024 02:15:00,0.476
25/03/2024 02:30:00,0.475
25/03/2024 02:45:00,0.475
25/03/2024 03:00:00,0.475
25/03/2024 03:15:00,0.472
25/03/2024 03:30:00,0.472
25/03/2024 03:45:00,0.472
25/03/2024 04:00:00,0.471
25/03/2024 04:15:00,0.469
25/03/2024 04:30:00,0.47
25/03/2024 04:45:00,0.469
25/03/2024 05:00:00,0.469
25/03/2024 05:15:00,0.468
25/03/2024 05:30:00,0.467
25/03/2024 05:45:00,0.467
25/03/2024 06:00:00,0.467
25/03/2024 06:15:00,0.467
25/03/2024 06:30:00,0.465
25/03/2024 06:45:00,0.464
25/03/2024 07:00:00,0.464
25/03/2024 07:15:00,0.464
25/03/2024 07:30:00,0.463
25/03/2024 07:45:00,0.462
25/03/2024 08:00:00,0.461
25/03/2024 08:15:00,0.461
25/03/2024 08:30:00,0.461
25/03/2024 08:45:00,0.46
25/03/2024 09:00:00,0.459
25/03/2024 09:15:00,0.459
25/03/2024 09:30:00,0.46
25/03/2024 09:45:00,0.459
25/03/2024 10:00:00,0.459
25/03/2024 10:15:00,0.457
25/03/2024 10:30:00,0.457
25/03/2024 10:45:00,0.456
25/03/2024 11:00:00,0.457
25/03/2024 11:15:00,0.454
25/03/2024 11:30:00,0.454
25/03/2024 11:45:00,0.454
25/03/2024 12:00:00,0.454
25/03/2024 12:15:00,0.454
25/03/2024 12:30:00,0.454
25/03/2024 12:45:00,0.454
25/03/2024 13:00:00,0.452
25/03/2024 13:15:00,0.453
25/03/2024 13:30:00,0.453
25/03/2024 13:45:00,0.451
25/03/2024 14:00:00,0.451
25/03/2024 14:15:00,0.451
25/03/2024 14:30:00,0.451
25/03/2024 14:45:00,0.451
25/03/2024 15:00:00,0.45
25/03/2024 15:15:00,0.449
25/03/2024 15:30:00,0.449
25/03/2024 15:45:00,0.449
25/03/2024 16:00:00,0.448
25/03/2024 16:15:00,0.446
25/03/2024 16:30:00,0.447
25/03/2024 16:45:00,0.446
25/03/2024 17:00:00,0.446
25/03/2024 17:15:00,0.447
25/03/2024 17:30:00,0.446
25/03/2024 17:45:00,0.447
25/03/2024 18:00:00,0.446
25/03/2024 18:15:00,0.446
25/03/2024 18:30:00,0.446
25/03/2024 18:45:00,0.446
25/03/2024 19:00:00,0.446
25/03/2024 19:15:00,0.445
25/03/2024 19:30:00,0.446
25/03/2024 19:45:00,0.446
25/03/2024 20:00:00,0.446
25/03/2024 20:15:00,0.446
25/03/2024 20:30:00,0.446
25/03/2024 20:45:00,0.446
25/03/2024 21:00:00,0.447
25/03/2024 21:15:00,0.448
25/03/2024 21:30:00,0.447
25/03/2024 21:45:00,0.449
25/03/2024 22:00:00,0.449
25/03/2024 22:15:00,0.449
25/03/2024 22:30:00,0.45
25/03/2024 22:45:00,0.449
25/03/2024 23:00:00,0.451
25/03/2024 23:15:00,0.451
25/03/2024 23:30:00,0.453
25/03/2024 23:45:00,0.453
26/03/2024 00:00:00,0.453
26/03/2024 00:15:00,0.454
26/03/2024 00:30:00,0.454
26/03/2024 00:45:00,0.454
26/03/2024 01:00:00,0.455
26/03/2024 01:15:00,0.456
26/03/2024 01:30:00,0.457
26/03/2024 01:45:00,0.455
26/03/2024 02:00:00,0.456
26/03/2024 02:15:00,0.456
26/03/2024 02:30:00,0.456
26/03/2024 02:45:00,0.456
26/03/2024 03:00:00,0.456
26/03/2024 03:15:00,0.456
26/03/2024 03:30:00,0.457
26/03/2024 03:45:00,0.456
26/03/2024 04:00:00,0.455
26/03/2024 04:15:00,0.456
26/03/2024 04:30:00,0.454
26/03/2024 04:45:00,0.454
26/03/2024 05:00:00,0.455
26/03/2024 05:15:00,0.454
26/03/2024 05:30:00,0.455
26/03/2024 05:45:00,0.454
26/03/2024 06:00:00,0.454
26/03/2024 06:15:00,0.453
26/03/2024 06:30:00,0.453
26/03/2024 06:45:00,0.453
26/03/2024 07:00:00,0.451
26/03/2024 07:15:00,0.452
26/03/2024 07:30:00,0.452
26/03/2024 07:45:00,0.452
26/03/2024 08:00:00,0.45
26/03/2024 08:15:00,0.45
26/03/2024 08:30:00,0.449
26/03/2024 08:45:00,0.449
26/03/2024 09:00:00,0.449
26/03/2024 09:15:00,0.449
26/03/2024 09:30:00,0.448
26/03/2024 09:45:00,0.447
26/03/2024 10:00:00,0.447
26/03/2024 10:15:00,0.446
26/03/2024 10:30:00,0.446
26/03/2024 10:45:00,0.446
26/03/2024 11:00:00,0.446
26/03/2024 11:15:00,0.446
26/03/2024 11:30:00,0.445
26/03/2024 11:45:00,0.445
26/03/2024 12:00:00,0.445
26/03/2024 12:15:00,0.444
26/03/2024 12:30:00,0.443
26/03/2024 12:45:00,0.442
26/03/2024 13:00:00,0.444
26/03/2024 13:15:00,0.443
26/03/2024 13:30:00,0.444
26/03/2024 13:45:00,0.444
26/03/2024 14:00:00,0.442
26/03/2024 14:15:00,0.443
26/03/2024 14:30:00,0.442
26/03/2024 14:45:00,0.442
26/03/2024 15:00:00,0.442
26/03/2024 15:15:00,0.442
26/03/2024 15:30:00,0.442
26/03/2024 15:45:00,0.441
26/03/2024 16:00:00,0.441
26/03/2024 16:15:00,0.441
26/03/2024 16:30:00,0.442
26/03/2024 16:45:00,0.44
26/03/2024 17:00:00,0.439
26/03/2024 17:15:00,0.441
26/03/2024 17:30:00,0.438
26/03/2024 17:45:00,0.438
26/03/2024 18:00:00,0.439
26/03/2024 18:15:00,0.441
26/03/2024 18:30:00,0.439
26/03/2024 18:45:00,0.438
26/03/2024 19:00:00,0.438
26/03/2024 19:15:00,0.438
26/03/2024 19:30:00,0.437
26/03/2024 19:45:00,0.437
26/03/2024 20:00:00,0.437
26/03/2024 20:15:00,0.437
26/03/2024 20:30:00,0.436
26/03/2024 20:45:00,0.436
26/03/2024 21:00:00,0.435
26/03/2024 21:15:00,0.435
26/03/2024 21:30:00,0.435
26/03/2024 21:45:00,0.435
26/03/2024 22:00:00,0.435
26/03/2024 22:15:00,0.435
26/03/2024 22:30:00,0.435
26/03/2024 22:45:00,0.435
26/03/2024 23:00:00,0.435
26/03/2024 23:15:00,0.435
26/03/2024 23:30:00,0.435
26/03/2024 23:45:00,0.435
27/03/2024 00:00:00,0.434
27/03/2024 00:15:00,0.435
27/03/2024 00:30:00,0.434
27/03/2024 00:45:00,0.435
27/03/2024 01:00:00,0.434
27/03/2024 01:15:00,0.434
27/03/2024 01:30:00,0.435
27/03/2024 01:45:00,0.434
27/03/2024 02:00:00,0.433
27/03/2024 02:15:00,0.433
27/03/2024 02:30:00,0.434
27/03/2024 02:45:00,0.434
27/03/2024 03:00:00,0.433
27/03/2024 03:15:00,0.431
27/03/2024 03:30:00,0.431
27/03/2024 03:45:00,0.431
27/03/2024 04:00:00,0.431
27/03/2024 04:15:00,0.431
27/03/2024 04:30:00,0.429
27/03/2024 04:45:00,0.429
27/03/2024 05:00:00,0.431
27/03/2024 05:15:00,0.431
27/03/2024 05:30:00,0.429
27/03/2024 05:45:00,0.429
27/03/2024 06:00:00,0.429
27/03/2024 06:15:00,0.429
27/03/2024 06:30:00,0.429
27/03/2024 06:45:00,0.428
27/03/2024 07:00:00,0.427
27/03/2024 07:15:00,0.429
27/03/2024 07:30:00,0.428
27/03/2024 07:45:00,0.429
27/03/2024 08:00:00,0.429
27/03/2024 08:15:00,0.427
27/03/2024 08:30:00,0.428
27/03/2024 08:45:00,0.428
27/03/2024 09:00:00,0.428
27/03/2024 09:15:00,0.428
27/03/2024 09:30:00,0.428
27/03/2024 09:45:00,0.427
27/03/2024 10:00:00,0.428
27/03/2024 10:15:00,0.428
27/03/2024 10:30:00,0.429
27/03/2024 10:45:00,0.428
27/03/2024 11:00:00,0.428
27/03/2024 11:15:00,0.428
27/03/2024 11:30:00,0.428
27/03/2024 11:45:00,0.429
27/03/2024 12:00:00,0.429
27/03/2024 12:15:00,0.428
27/03/2024 12:30:00,0.428
27/03/2024 12:45:00,0.429
27/03/2024 13:00:00,0.429
27/03/2024 13:15:00,0.429
27/03/2024 13:30:00,0.429
27/03/2024 13:45:00,0.429
27/03/2024 14:00:00,0.432
27/03/2024 14:15:00,0.432
27/03/2024 14:30:00,0.434
27/03/2024 14:45:00,0.434
27/03/2024 15:00:00,0.435
27/03/2024 15:15:00,0.435
27/03/2024 15:30:00,0.435
27/03/2024 15:45:00,0.437
27/03/2024 16:00:00,0.438
27/03/2024 16:15:00,0.437
27/03/2024 16:30:00,0.438
27/03/2024 16:45:00,0.44
27/03/2024 17:00:00,0.441
27/03/2024 17:15:00,0.441
27/03/2024 17:30:00,0.441
27/03/2024 17:45:00,0.443
27/03/2024 18:00:00,0.443
27/03/2024 18:15:00,0.445
27/03/2024 18:30:00,0.445
27/03/2024 18:45:00,0.448
27/03/2024 19:00:00,0.449
27/03/2024 19:15:00,0.451
27/03/2024 19:30:00,0.453
27/03/2024 19:45:00,0.454
27/03/2024 20:00:00,0.457
27/03/2024 20:15:00,0.457
27/03/2024 20:30:00,0.46
27/03/2024 20:45:00,0.461
27/03/2024 21:00:00,0.464
27/03/2024 21:15:00,0.466
27/03/2024 21:30:00,0.467
27/03/2024 21:45:00,0.469
27/03/2024 22:00:00,0.47
27/03/2024 22:15:00,0.472
27/03/2024 22:30:00,0.473
27/03/2024 22:45:00,0.475
27/03/2024 23:00:00,0.477
27/03/2024 23:15:00,0.477
27/03/2024 23:30:00,0.479
27/03/2024 23:45:00,0.48
28/03/2024 00:00:00,0.481
28/03/2024 00:15:00,0.482
28/03/2024 00:30:00,0.483
28/03/2024 00:45:00,0.483
28/03/2024 01:00:00,0.483
28/03/2024 01:15:00,0.484
28/03/2024 01:30:00,0.484
28/03/2024 01:45:00,0.485
28/03/2024 02:00:00,0.484
28/03/2024 02:15:00,0.484
28/03/2024 02:30:00,0.483
28/03/2024 02:45:00,0.484
28/03/2024 03:00:00,0.483
28/03/2024 03:15:00,0.485
28/03/2024 03:30:00,0.482
28/03/2024 03:45:00,0.483
28/03/2024 04:00:00,0.482
28/03/2024 04:15:00,0.482
28/03/2024 04:30:00,0.481
28/03/2024 04:45:00,0.482
28/03/2024 05:00:00,0.481
28/03/2024 05:15:00,0.48
28/03/2024 05:30:00,0.48
28/03/2024 05:45:00,0.48
28/03/2024 06:00:00,0.479
28/03/2024 06:15:00,0.479
28/03/2024 06:30:00,0.479
28/03/2024 06:45:00,0.479
28/03/2024 07:00:00,0.479
28/03/2024 07:15:00,0.477
28/03/2024 07:30:00,0.477
28/03/2024 07:45:00,0.476
28/03/2024 08:00:00,0.475
28/03/2024 08:15:00,0.474
28/03/2024 08:30:00,0.474
28/03/2024 08:45:00,0.472
28/03/2024 09:00:00,0.472
28/03/2024 09:15:00,0.471
28/03/2024 09:30:00,0.47
28/03/2024 09:45:00,0.47
28/03/2024 10:00:00,0.469
28/03/2024 10:15:00,0.469
28/03/2024 10:30:00,0.467
28/03/2024 10:45:00,0.467
28/03/2024 11:00:00,0.467
28/03/2024 11:15:00,0.467
28/03/2024 11:30:00,0.466
28/03/2024 11:45:00,0.465
28/03/2024 12:00:00,0.465
28/03/2024 12:15:00,0.464
28/03/2024 12:30:00,0.464
28/03/2024 12:45:00,0.464
28/03/2024 13:00:00,0.464
28/03/2024 13:15:00,0.464
28/03/2024 13:30:00,0.464
28/03/2024 13:45:00,0.465
28/03/2024 14:00:00,0.467
28/03/2024 14:15:00,0.468
28/03/2024 14:30:00,0.469
28/03/2024 14:45:00,0.47
28/03/2024 15:00:00,0.471
28/03/2024 15:15:00,0.475
28/03/2024 15:30:00,0.475
28/03/2024 15:45:00,0.477
28/03/2024 16:00:00,0.479
28/03/2024 16:15:00,0.482
28/03/2024 16:30:00,0.485
28/03/2024 16:45:00,0.487
28/03/2024 17:00:00,0.489
28/03/2024 17:15:00,0.491
28/03/2024 17:30:00,0.494
28/03/2024 17:45:00,0.495
28/03/2024 18:00:00,0.498
28/03/2024 18:15:00,0.501
28/03/2024 18:30:00,0.505
28/03/2024 18:45:00,0.507
28/03/2024 19:00:00,0.51
28/03/2024 19:15:00,0.512
28/03/2024 19:30:00,0.513
28/03/2024 19:45:00,0.517
28/03/2024 20:00:00,0.518
28/03/2024 20:15:00,0.52
